Jordan, MT

3:54 PM MDT on March 27, 2017 (GMT -0600)
Jordan

Weather History for KJDN - January, 2014

Change the Weather History Date:

Thursday, January 23, 2014

  Actual Average Record
Temperature  
Mean Temperature 22 °F 18 °F  
Max Temperature 38 °F 29 °F 62 °F (1919)
Min Temperature 5 °F 6 °F -40 °F (1982)
Degree Days  
Heating Degree Days 43 47  
Month to date heating degree days 893 1108  
Since 1 July heating degree days 4480 4558  
Cooling Degree Days 0 0  
Month to date cooling degree days 0 0  
Year to date cooling degree days 0 0  
Moisture  
Dew Point 17 °F    
Average Humidity 70    
Maximum Humidity 88    
Minimum Humidity 51    
Precipitation  
Precipitation 0.00 in 0.00 in 0.18 in (1991)
Month to date precipitation 0.06 0.18  
Year to date precipitation 0.06 0.18  
Snow  
Snow 0.00 in - - ()
Month to date snowfall 0.0  
Since 1 July snowfall 0.0  
Snow Depth 0.00 in    
Sea Level Pressure  
Sea Level Pressure 30.42 in    
Wind  
Wind Speed 8 mph (WSW)    
Max Wind Speed 18 mph    
Max Gust Speed 23 mph    
T = Trace of Precipitation, MM = Missing Value Source: NWS Daily Summary

Daily Weather History Graph

Daily Weather History Graph

Search for Another Location

Airport or City:

Trip Planner

Search our weather history database for the weather conditions in past years. The results will help you decide how hot, cold, wet, or windy it might be!

Date:

Astronomy

Jan. 23, 2014 Rise Set
Actual Time 7:43 AM MST 4:56 PM MST
Civil Twilight 7:09 AM MST 5:29 PM MST
Nautical Twilight 6:32 AM MST 6:07 PM MST
Astronomical Twilight 5:56 AM MST 6:43 PM MST
Moon 12:00 AM MST (1/23) 10:48 AM MST (1/23)
Length of Visible Light 10h 19m
Length of Day
9h 12m
Waning Gibbous, 54% of the Moon is Illuminated
Jan 23
Waning Gibbous
Jan 23
Last Quarter
Jan 30
New
Feb 6
First Quarter
Feb 14
Full

Hourly Weather History & Observations

Time (MST) Temp. Windchill Dew Point Humidity Pressure Visibility Wind Dir Wind Speed Gust Speed Precip Events Conditions
12:48 AM 7.0 °F - 3.0 °F 84% 30.69 in - Calm Calm - N/A   Unknown
1:48 AM 10.0 °F - 5.0 °F 80% 30.67 in - Calm Calm - N/A   Unknown
2:48 AM 10.0 °F - 6.1 °F 84% 30.67 in - Calm Calm - N/A   Unknown
3:48 AM 10.9 °F - 7.0 °F 84% 30.66 in - Calm Calm - N/A   Unknown
4:48 AM 14.0 °F 2.9 °F 10.0 °F 84% 30.63 in - SSW 8.1 mph - N/A   Unknown
5:48 AM 17.1 °F 4.3 °F 12.0 °F 81% 30.62 in - WSW 11.5 mph - N/A   Unknown
6:48 AM 16.0 °F 6.3 °F 12.0 °F 84% 30.62 in - SSW 6.9 mph - N/A   Unknown
7:48 AM 10.9 °F 4.7 °F 7.0 °F 84% 30.61 in - Variable 3.5 mph - N/A   Unknown
9:48 AM 17.1 °F - 10.9 °F 77% 30.56 in - Calm Calm - N/A   Unknown
10:48 AM 25.0 °F 14.2 °F 17.1 °F 72% 30.50 in - WSW 11.5 mph - N/A   Unknown
11:48 AM 30.9 °F 22.2 °F 16.0 °F 54% 30.45 in - WSW 10.4 mph - N/A   Unknown
12:48 PM 34.0 °F 25.0 °F 18.0 °F 52% 30.39 in - SW 12.7 mph - N/A   Unknown
1:48 PM 36.0 °F 27.1 °F 21.0 °F 55% 30.33 in - West 13.8 mph - N/A   Unknown
2:48 PM 37.0 °F 28.5 °F 21.0 °F 52% 30.30 in - West 13.8 mph - N/A   Unknown
3:48 PM 36.0 °F 29.0 °F 23.0 °F 59% 30.29 in - WSW 9.2 mph - N/A   Unknown
4:48 PM 35.1 °F 26.4 °F 23.0 °F 61% 30.25 in - West 12.7 mph - N/A   Unknown
5:48 PM 34.0 °F 28.0 °F 23.0 °F 64% 30.23 in - West 6.9 mph - N/A   Unknown
6:48 PM 35.1 °F 26.4 °F 21.9 °F 59% 30.21 in - West 12.7 mph - N/A   Unknown
7:48 PM 35.1 °F 25.2 °F 23.0 °F 61% 30.18 in - West 16.1 mph - N/A   Unknown
8:48 PM 33.1 °F 24.4 °F 23.0 °F 66% 30.20 in - West 11.5 mph - N/A   Unknown
9:48 PM 36.0 °F 27.5 °F 26.1 °F 67% 30.19 in - West 12.7 mph - N/A   Unknown
10:48 PM 37.0 °F 29.3 °F 27.0 °F 67% 30.19 in - West 11.5 mph - N/A   Unknown
11:48 PM 36.0 °F 31.1 °F 28.0 °F 73% 30.19 in - West 5.8 mph - N/A   Unknown